| time (UTC) | temp F | wind direction | speed knots | gust knots | rain 1hr in | rain 24hr in | rain mn in | humidity % | barometer mb |
| 20260502185609 | 68 | 244 | 4.3 | 5.2 | 0.00 | 0.00 | 0.00 | 10 | 1021.7 |
| 20260502185106 | 69 | 267 | 5.2 | 6.1 | 0.00 | 0.00 | 0.00 | 10 | 1021.8 |
| 20260502184602 | 69 | 245 | 7.0 | 7.8 | 0.00 | 0.00 | 0.00 | 10 | 1021.8 |
| 20260502184058 | 68 | 201 | 1.7 | 1.7 | 0.00 | 0.00 | 0.00 | 10 | 1021.8 |
| 20260502183554 | 68 | 252 | 7.0 | 7.8 | 0.00 | 0.00 | 0.00 | 10 | 1021.8 |
| 20260502183050 | 68 | 246 | 7.0 | 7.0 | 0.00 | 0.00 | 0.00 | 10 | 1021.8 |
| 20260502182546 | 68 | 245 | 3.5 | 4.3 | 0.00 | 0.00 | 0.00 | 10 | 1021.8 |
| 20260502182041 | 69 | 267 | 6.1 | 6.1 | 0.00 | 0.00 | 0.00 | 10 | 1022.0 |
| 20260502181534 | 68 | 268 | 6.1 | 8.7 | 0.00 | 0.00 | 0.00 | 10 | 1021.9 |
| 20260502181032 | 68 | 205 | 1.7 | 2.6 | 0.00 | 0.00 | 0.00 | 10 | 1021.7 |
| 20260502180528 | 68 | 256 | 2.6 | 4.3 | 0.00 | 0.00 | 0.00 | 10 | 1021.9 |
| 20260502170442 | 67 | 168 | 4.3 | 6.1 | 0.00 | 0.00 | 0.00 | 10 | 1022.4 |
| 20260502163925 | 64 | 181 | 0.0 | 0.9 | 0.00 | 0.00 | 0.00 | 10 | 1022.4 |
| 20260502163421 | 64 | 248 | 2.6 | 2.6 | 0.00 | 0.00 | 0.00 | 10 | 1022.4 |
| 20260502162919 | 64 | 196 | 0.9 | 1.7 | 0.00 | 0.00 | 0.00 | 10 | 1022.3 |
| 20260502162416 | 64 | 213 | 1.7 | 1.7 | 0.00 | 0.00 | 0.00 | 10 | 1022.5 |
| 20260502161913 | 66 | 190 | 0.9 | 1.7 | 0.00 | 0.00 | 0.00 | 10 | 1022.4 |
| 20260502161409 | 64 | 206 | 0.9 | 0.9 | 0.00 | 0.00 | 0.00 | 10 | 1022.2 |
| 20260502160907 | 63 | 164 | 0.0 | 0.0 | 0.00 | 0.00 | 0.00 | 10 | 1022.2 |
| 20260502160405 | 64 | 95 | 2.6 | 2.6 | 0.00 | 0.00 | 0.00 | 10 | 1022.0 |
| 20260502152334 | 60 | 100 | 3.5 | 4.3 | 0.00 | 0.00 | 0.00 | 10 | 1022.4 |
| 20260502151831 | 59 | 52 | 3.5 | 5.2 | 0.00 | 0.00 | 0.00 | 10 | 1022.5 |
| 20260502151328 | 59 | 104 | 4.3 | 5.2 | 0.00 | 0.00 | 0.00 | 10 | 1022.5 |
| 20260502150825 | 58 | 132 | 0.9 | 1.7 | 0.00 | 0.00 | 0.00 | 10 | 1022.4 |
| 20260502150322 | 57 | 135 | 4.3 | 5.2 | 0.00 | 0.00 | 0.00 | 10 | 1022.5 |
| 20260502130710 | 48 | 151 | 1.7 | 1.7 | 0.00 | 0.00 | 0.00 | 10 | 1022.0 |
| 20260502130208 | 48 | 162 | 0.9 | 1.7 | 0.00 | 0.00 | 0.00 | 10 | 1022.0 |
| 20260502123654 | 49 | 176 | 0.9 | 0.9 | 0.00 | 0.00 | 0.00 | 10 | 1021.8 |
| 20260502123150 | 49 | 155 | 0.9 | 1.7 | 0.00 | 0.00 | 0.00 | 10 | 1022.0 |
| 20260502122647 | 49 | 144 | 1.7 | 1.7 | 0.00 | 0.00 | 0.00 | 10 | 1022.0 |
| 20260502122143 | 49 | 125 | 4.3 | 5.2 | 0.00 | 0.00 | 0.00 | 10 | 1021.8 |
| 20260502121642 | 49 | 119 | 4.3 | 5.2 | 0.00 | 0.00 | 0.00 | 10 | 1021.7 |
| 20260502121139 | 49 | 122 | 3.5 | 5.2 | 0.00 | 0.00 | 0.00 | 10 | 1021.7 |
| 20260502120635 | 49 | 123 | 3.5 | 4.3 | 0.00 | 0.00 | 0.00 | 10 | 1021.7 |
| 20260502120132 | 49 | 133 | 2.6 | 2.6 | 0.00 | 0.00 | 0.00 | 10 | 1021.6 |
| 20260502115630 | 49 | 105 | 4.3 | 5.2 | 0.00 | 0.00 | 0.00 | 10 | 1021.7 |
| 20260502115125 | 48 | 141 | 2.6 | 4.3 | 0.00 | 0.00 | 0.00 | 10 | 1021.9 |
| 20260502114622 | 48 | 126 | 3.5 | 4.3 | 0.00 | 0.00 | 0.00 | 10 | 1021.7 |
| 20260502114119 | 48 | 131 | 1.7 | 1.7 | 0.00 | 0.00 | 0.00 | 10 | 1021.7 |
| 20260502113617 | 48 | 114 | 2.6 | 2.6 | 0.00 | 0.00 | 0.00 | 10 | 1021.7 |
| 20260502113115 | 48 | 121 | 2.6 | 2.6 | 0.00 | 0.00 | 0.00 | 10 | 1021.7 |
| 20260502112612 | 48 | 130 | 1.7 | 1.7 | 0.00 | 0.00 | 0.00 | 10 | 1021.8 |
| 20260502112110 | 48 | 106 | 3.5 | 4.3 | 0.00 | 0.00 | 0.00 | 10 | 1021.7 |
| 20260502111607 | 47 | 98 | 3.5 | 4.3 | 0.00 | 0.00 | 0.00 | 10 | 1021.8 |
| 20260502111104 | 47 | 107 | 1.7 | 1.7 | 0.00 | 0.00 | 0.00 | 10 | 1021.7 |
| 20260502110602 | 46 | 105 | 1.7 | 2.6 | 0.00 | 0.00 | 0.00 | 10 | 1021.8 |
| 20260502110059 | 45 | 143 | 0.9 | 1.7 | 0.00 | 0.00 | 0.00 | 10 | 1022.2 |
| 20260502105556 | 45 | 120 | 0.9 | 1.7 | 0.00 | 0.00 | 0.00 | 10 | 1021.6 |
| 20260502105054 | 45 | 141 | 0.9 | 0.9 | 0.00 | 0.00 | 0.00 | 10 | 1021.7 |
| 20260502104551 | 45 | 185 | 0.9 | 0.9 | 0.00 | 0.00 | 0.00 | 10 | 1021.9 |
| 20260502104048 | 45 | 189 | 0.0 | 0.0 | 0.00 | 0.00 | 0.00 | 10 | 1022.0 |
| 20260502103546 | 44 | 190 | 0.0 | 0.0 | 0.00 | 0.00 | 0.00 | 10 | 1021.9 |
| 20260502103044 | 45 | 190 | 0.9 | 0.9 | 0.00 | 0.00 | 0.00 | 10 | 1021.9 |
| 20260502102540 | 46 | 178 | 0.0 | 0.0 | 0.00 | 0.00 | 0.00 | 10 | 1021.8 |
| 20260502102037 | 46 | 125 | 0.9 | 1.7 | 0.00 | 0.00 | 0.00 | 10 | 1021.8 |
| 20260502101535 | 45 | 164 | 0.9 | 1.7 | 0.00 | 0.00 | 0.00 | 10 | 1022.0 |
| 20260502101033 | 45 | 193 | 0.0 | 0.0 | 0.00 | 0.00 | 0.00 | 10 | 1021.9 |
| 20260502100531 | 45 | 159 | 0.0 | 0.0 | 0.00 | 0.00 | 0.00 | 10 | 1021.9 |
| 20260502091506 | 48 | 196 | 0.9 | 0.9 | 0.00 | 0.00 | 0.00 | 10 | 1021.6 |
| 20260502091003 | 49 | 183 | 0.0 | 0.0 | 0.00 | 0.00 | 0.00 | 10 | 1021.7 |
| 20260502090500 | 49 | 170 | 1.7 | 1.7 | 0.00 | 0.00 | 0.00 | 10 | 1021.6 |
| 20260502071354 | 51 | 155 | 0.0 | 0.0 | 0.00 | 0.00 | 0.00 | 10 | 1021.5 |
| 20260502070853 | 51 | 105 | 0.9 | 0.9 | 0.00 | 0.00 | 0.00 | 10 | 1021.4 |
| 20260502070350 | 52 | 119 | 0.9 | 1.7 | 0.00 | 0.00 | 0.00 | 10 | 1021.5 |
| 20260502065849 | 52 | 131 | 3.5 | 4.3 | 0.00 | 0.00 | 0.00 | 10 | 1021.4 |
| 20260502065347 | 51 | 127 | 2.6 | 4.3 | 0.00 | 0.00 | 0.00 | 10 | 1021.5 |
| 20260502064844 | 50 | 156 | 1.7 | 1.7 | 0.00 | 0.00 | 0.00 | 10 | 1021.4 |
| 20260502064342 | 50 | 131 | 2.6 | 4.3 | 0.00 | 0.00 | 0.00 | 10 | 1021.4 |
| 20260502063839 | 50 | 133 | 2.6 | 2.6 | 0.00 | 0.00 | 0.00 | 10 | 1021.4 |
| 20260502063337 | 50 | 172 | 3.5 | 4.3 | 0.00 | 0.00 | 0.00 | 10 | 1021.6 |
| 20260502062834 | 51 | 176 | 2.6 | 2.6 | 0.00 | 0.00 | 0.00 | 10 | 1021.4 |
| 20260502062331 | 51 | 189 | 0.9 | 1.7 | 0.00 | 0.00 | 0.00 | 10 | 1021.6 |
| 20260502061830 | 51 | 199 | 0.0 | 0.0 | 0.00 | 0.00 | 0.00 | 10 | 1021.6 |
| 20260502061327 | 51 | 207 | 0.9 | 0.9 | 0.00 | 0.00 | 0.00 | 10 | 1021.4 |
| 20260502060823 | 51 | 219 | 0.9 | 0.9 | 0.00 | 0.00 | 0.00 | 10 | 1021.2 |
| 20260502060318 | 52 | 270 | 5.2 | 7.0 | 0.00 | 0.00 | 0.00 | 10 | 1021.6 |
| 20260502055816 | 52 | 163 | 2.6 | 2.6 | 0.00 | 0.00 | 0.00 | 10 | 1021.4 |
| 20260502055314 | 52 | 154 | 2.6 | 2.6 | 0.00 | 0.00 | 0.00 | 10 | 1021.2 |
| 20260502054813 | 53 | 163 | 2.6 | 2.6 | 0.00 | 0.00 | 0.00 | 10 | 1021.5 |
| 20260502054310 | 52 | 134 | 5.2 | 6.1 | 0.00 | 0.00 | 0.00 | 10 | 1021.2 |
| 20260502053808 | 53 | 125 | 4.3 | 5.2 | 0.00 | 0.00 | 0.00 | 10 | 1021.2 |
| 20260502053304 | 53 | 142 | 2.6 | 2.6 | 0.00 | 0.00 | 0.00 | 10 | 1021.5 |
| 20260502052802 | 53 | 161 | 2.6 | 2.6 | 0.00 | 0.00 | 0.00 | 10 | 1021.5 |
| 20260502052300 | 53 | 149 | 3.5 | 6.1 | 0.00 | 0.00 | 0.00 | 10 | 1021.1 |
| 20260502051758 | 54 | 149 | 4.3 | 5.2 | 0.00 | 0.00 | 0.00 | 10 | 1021.1 |
| 20260502051256 | 54 | 158 | 4.3 | 5.2 | 0.00 | 0.00 | 0.00 | 10 | 1021.2 |
| 20260502050752 | 54 | 169 | 2.6 | 2.6 | 0.00 | 0.00 | 0.00 | 10 | 1021.5 |
| 20260502050248 | 54 | 154 | 2.6 | 2.6 | 0.00 | 0.00 | 0.00 | 10 | 1021.1 |
| 20260502045746 | 54 | 170 | 1.7 | 1.7 | 0.00 | 0.00 | 0.00 | 10 | 1021.4 |
| 20260502045242 | 54 | 168 | 1.7 | 2.6 | 0.00 | 0.00 | 0.00 | 10 | 1021.2 |
| 20260502044739 | 54 | 164 | 1.7 | 2.6 | 0.00 | 0.00 | 0.00 | 10 | 1021.4 |
| 20260502044235 | 54 | 145 | 2.6 | 4.3 | 0.00 | 0.00 | 0.00 | 10 | 1021.4 |
| 20260502043733 | 54 | 129 | 4.3 | 7.0 | 0.00 | 0.00 | 0.00 | 10 | 1021.2 |
| 20260502043230 | 54 | 151 | 1.7 | 1.7 | 0.00 | 0.00 | 0.00 | 10 | 1021.4 |
| 20260502042729 | 54 | 146 | 3.5 | 4.3 | 0.00 | 0.00 | 0.00 | 10 | 1021.1 |
| 20260502042227 | 55 | 145 | 5.2 | 6.1 | 0.00 | 0.00 | 0.00 | 10 | 1021.0 |
| 20260502041725 | 55 | 146 | 3.5 | 5.2 | 0.00 | 0.00 | 0.00 | 10 | 1021.1 |
| 20260502041222 | 55 | 145 | 3.5 | 4.3 | 0.00 | 0.00 | 0.00 | 10 | 1020.7 |
| 20260502040719 | 55 | 168 | 2.6 | 2.6 | 0.00 | 0.00 | 0.00 | 10 | 1021.0 |
| 20260502040216 | 55 | 163 | 2.6 | 2.6 | 0.00 | 0.00 | 0.00 | 10 | 1021.1 |
| 20260502035712 | 55 | 156 | 1.7 | 2.6 | 0.00 | 0.00 | 0.00 | 10 | 1020.7 |
| 20260502035209 | 56 | 161 | 4.3 | 5.2 | 0.00 | 0.00 | 0.00 | 10 | 1020.9 |
| 20260502034706 | 56 | 158 | 5.2 | 6.1 | 0.00 | 0.00 | 0.00 | 10 | 1020.6 |
| 20260502034204 | 56 | 168 | 3.5 | 4.3 | 0.00 | 0.00 | 0.00 | 10 | 1020.8 |
| 20260502033702 | 57 | 173 | 2.6 | 2.6 | 0.00 | 0.00 | 0.00 | 10 | 1020.6 |
| 20260502033200 | 57 | 179 | 1.7 | 1.7 | 0.00 | 0.00 | 0.00 | 10 | 1020.4 |
| 20260502032656 | 57 | 175 | 0.9 | 1.7 | 0.00 | 0.00 | 0.00 | 10 | 1020.4 |
| 20260502032152 | 57 | 174 | 1.7 | 1.7 | 0.00 | 0.00 | 0.00 | 10 | 1020.7 |
| 20260502031650 | 57 | 174 | 0.9 | 0.9 | 0.00 | 0.00 | 0.00 | 10 | 1020.1 |
| 20260502031148 | 57 | 173 | 1.7 | 4.3 | 0.00 | 0.00 | 0.00 | 10 | 1020.3 |
| 20260502030646 | 57 | 189 | 1.7 | 2.6 | 0.00 | 0.00 | 0.00 | 10 | 1020.1 |
| 20260502030144 | 58 | 201 | 1.7 | 2.6 | 0.00 | 0.00 | 0.00 | 10 | 1020.2 |
| 20260502025641 | 57 | 202 | 2.6 | 4.3 | 0.00 | 0.00 | 0.00 | 10 | 1020.1 |
| 20260502025139 | 57 | 218 | 2.6 | 2.6 | 0.00 | 0.00 | 0.00 | 10 | 1020.0 |
| 20260502024636 | 57 | 212 | 2.6 | 2.6 | 0.00 | 0.00 | 0.00 | 10 | 1019.8 |
| 20260502024134 | 58 | 221 | 4.3 | 5.2 | 0.00 | 0.00 | 0.00 | 10 | 1020.1 |
| 20260502023632 | 58 | 226 | 2.6 | 2.6 | 0.00 | 0.00 | 0.00 | 10 | 1019.9 |
| 20260502023129 | 58 | 238 | 4.3 | 5.2 | 0.00 | 0.00 | 0.00 | 10 | 1019.9 |
| 20260502022626 | 58 | 228 | 4.3 | 6.1 | 0.00 | 0.00 | 0.00 | 10 | 1019.9 |
| 20260502022123 | 59 | 239 | 2.6 | 4.3 | 0.00 | 0.00 | 0.00 | 10 | 1019.9 |
| 20260502021620 | 59 | 242 | 3.5 | 4.3 | 0.00 | 0.00 | 0.00 | 10 | 1019.9 |
| 20260502021117 | 59 | 245 | 3.5 | 4.3 | 0.00 | 0.00 | 0.00 | 10 | 1019.7 |
| 20260502020615 | 60 | 251 | 2.6 | 2.6 | 0.00 | 0.00 | 0.00 | 10 | 1019.8 |
| 20260502020111 | 60 | 240 | 4.3 | 5.2 | 0.00 | 0.00 | 0.00 | 10 | 1019.5 |
| 20260502015609 | 61 | 270 | 5.2 | 6.1 | 0.00 | 0.00 | 0.00 | 10 | 1019.7 |
| 20260502015106 | 61 | 254 | 4.3 | 4.3 | 0.00 | 0.00 | 0.00 | 10 | 1019.8 |
| 20260502014603 | 61 | 238 | 5.2 | 6.1 | 0.00 | 0.00 | 0.00 | 10 | 1019.8 |
| 20260502014100 | 62 | 239 | 4.3 | 5.2 | 0.00 | 0.00 | 0.00 | 10 | 1019.8 |
| 20260502013555 | 62 | 243 | 5.2 | 7.0 | 0.00 | 0.00 | 0.00 | 10 | 1019.7 |
| 20260502013051 | 62 | 267 | 7.0 | 8.7 | 0.00 | 0.00 | 0.00 | 10 | 1019.7 |
| 20260502012549 | 62 | 245 | 6.1 | 7.8 | 0.00 | 0.00 | 0.00 | 10 | 1019.5 |
| 20260502012047 | 63 | 253 | 7.8 | 8.7 | 0.00 | 0.00 | 0.00 | 10 | 1019.5 |
| 20260502011543 | 64 | 244 | 7.0 | 7.8 | 0.00 | 0.00 | 0.00 | 10 | 1019.5 |
| 20260502011039 | 65 | 251 | 2.6 | 2.6 | 0.00 | 0.00 | 0.00 | 10 | 1019.4 |
| 20260502010537 | 65 | 261 | 7.8 | 9.6 | 0.00 | 0.00 | 0.00 | 10 | 1019.3 |
| 20260502010033 | 65 | 275 | 5.2 | 6.1 | 0.00 | 0.00 | 0.00 | 10 | 1019.7 |
| 20260502005531 | 65 | 257 | 6.1 | 7.8 | 0.00 | 0.00 | 0.00 | 10 | 1019.7 |
| 20260502005029 | 66 | 244 | 2.6 | 2.6 | 0.00 | 0.00 | 0.00 | 10 | 1019.5 |
| 20260502004524 | 66 | 270 | 4.3 | 5.2 | 0.00 | 0.00 | 0.00 | 10 | 1019.8 |
| 20260502004021 | 67 | 307 | 5.2 | 7.8 | 0.00 | 0.00 | 0.00 | 10 | 1019.5 |
| 20260502003519 | 66 | 301 | 3.5 | 5.2 | 0.00 | 0.00 | 0.00 | 10 | 1019.7 |
| 20260502003015 | 66 | 323 | 7.8 | 8.7 | 0.00 | 0.00 | 0.00 | 10 | 1019.7 |
| 20260502002512 | 66 | 310 | 11.3 | 14.8 | 0.00 | 0.00 | 0.00 | 10 | 1019.8 |
| 20260502002009 | 66 | 276 | 4.3 | 6.1 | 0.00 | 0.00 | 0.00 | 10 | 1019.8 |
| 20260502001507 | 66 | 254 | 9.6 | 13.0 | 0.00 | 0.00 | 0.00 | 10 | 1019.8 |
| 20260502001004 | 66 | 284 | 10.4 | 18.2 | 0.00 | 0.00 | 0.00 | 10 | 1019.7 |
| 20260502000503 | 66 | 306 | 12.2 | 17.4 | 0.00 | 0.00 | 0.00 | 10 | 1020.1 |
| 20260501235958 | 66 | 264 | 8.7 | 12.2 | 0.00 | 0.00 | 0.00 | 10 | 1019.7 |
| 20260501235454 | 66 | 303 | 8.7 | 8.7 | 0.00 | 0.00 | 0.00 | 10 | 1019.5 |
| 20260501234949 | 66 | 304 | 7.8 | 8.7 | 0.00 | 0.00 | 0.00 | 10 | 1019.7 |
| 20260501234446 | 66 | 326 | 10.4 | 12.2 | 0.00 | 0.00 | 0.00 | 10 | 1020.0 |
| 20260501233945 | 66 | 340 | 5.2 | 6.1 | 0.00 | 0.00 | 0.00 | 10 | 1019.9 |
| 20260501233443 | 66 | 275 | 7.8 | 8.7 | 0.00 | 0.00 | 0.00 | 10 | 1019.9 |
| 20260501232938 | 66 | 284 | 7.0 | 8.7 | 0.00 | 0.00 | 0.00 | 10 | 1019.9 |
| 20260501232435 | 66 | 269 | 5.2 | 6.1 | 0.00 | 0.00 | 0.00 | 10 | 1019.9 |
| 20260501231932 | 66 | 326 | 9.6 | 12.2 | 0.00 | 0.00 | 0.00 | 10 | 1019.8 |
| 20260501231431 | 65 | 318 | 6.1 | 7.0 | 0.00 | 0.00 | 0.00 | 10 | 1019.9 |
| 20260501230928 | 66 | 266 | 2.6 | 4.3 | 0.00 | 0.00 | 0.00 | 10 | 1020.2 |
| 20260501230427 | 65 | 317 | 7.0 | 8.7 | 0.00 | 0.00 | 0.00 | 10 | 1020.1 |
| 20260501225924 | 66 | 345 | 6.1 | 7.8 | 0.00 | 0.00 | 0.00 | 10 | 1020.0 |
| 20260501225422 | 66 | 342 | 6.1 | 7.8 | 0.00 | 0.00 | 0.00 | 10 | 1020.3 |
| 20260501224917 | 66 | 273 | 6.1 | 7.8 | 0.00 | 0.00 | 0.00 | 10 | 1020.3 |
| 20260501224415 | 65 | 310 | 7.0 | 9.6 | 0.00 | 0.00 | 0.00 | 10 | 1020.3 |
| 20260501223912 | 65 | 267 | 8.7 | 11.3 | 0.00 | 0.00 | 0.00 | 10 | 1020.1 |
| 20260501223408 | 65 | 296 | 7.8 | 8.7 | 0.00 | 0.00 | 0.00 | 10 | 1020.3 |
| 20260501222904 | 65 | 285 | 5.2 | 7.8 | 0.00 | 0.00 | 0.00 | 10 | 1020.3 |
| 20260501222401 | 65 | 318 | 5.2 | 6.1 | 0.00 | 0.00 | 0.00 | 10 | 1020.6 |
| 20260501221857 | 65 | 315 | 6.1 | 7.8 | 0.00 | 0.00 | 0.00 | 10 | 1020.6 |
| 20260501221355 | 65 | 320 | 8.7 | 9.6 | 0.00 | 0.00 | 0.00 | 10 | 1020.8 |
| 20260501220853 | 64 | 297 | 11.3 | 12.2 | 0.00 | 0.00 | 0.00 | 10 | 1020.8 |
| 20260501220350 | 65 | 278 | 8.7 | 11.3 | 0.00 | 0.00 | 0.00 | 10 | 1020.9 |
| 20260501215846 | 64 | 255 | 7.8 | 8.7 | 0.00 | 0.00 | 0.00 | 10 | 1020.6 |
| 20260501215343 | 64 | 333 | 8.7 | 11.3 | 0.00 | 0.00 | 0.00 | 10 | 1020.6 |
| 20260501214838 | 65 | 258 | 6.1 | 7.8 | 0.00 | 0.00 | 0.00 | 10 | 1021.0 |
| 20260501214334 | 64 | 290 | 6.1 | 9.6 | 0.00 | 0.00 | 0.00 | 10 | 1020.7 |
| 20260501213830 | 65 | 316 | 6.1 | 7.0 | 0.00 | 0.00 | 0.00 | 10 | 1020.9 |
| 20260501213327 | 64 | 268 | 7.0 | 9.6 | 0.00 | 0.00 | 0.00 | 10 | 1020.8 |
| 20260501212822 | 64 | 244 | 12.2 | 14.8 | 0.00 | 0.00 | 0.00 | 10 | 1020.8 |
| 20260501212319 | 64 | 284 | 7.8 | 11.3 | 0.00 | 0.00 | 0.00 | 10 | 1021.1 |
| 20260501211816 | 64 | 283 | 10.4 | 13.0 | 0.00 | 0.00 | 0.00 | 10 | 1021.1 |
| 20260501211314 | 63 | 255 | 7.8 | 12.2 | 0.00 | 0.00 | 0.00 | 10 | 1021.0 |
| 20260501210810 | 64 | 303 | 5.2 | 6.1 | 0.00 | 0.00 | 0.00 | 10 | 1021.0 |
| 20260501210307 | 64 | 274 | 7.8 | 8.7 | 0.00 | 0.00 | 0.00 | 10 | 1021.0 |
| 20260501205803 | 64 | 289 | 7.8 | 9.6 | 0.00 | 0.00 | 0.00 | 10 | 1021.4 |
| 20260501205300 | 64 | 228 | 8.7 | 12.2 | 0.00 | 0.00 | 0.00 | 10 | 1021.1 |
| 20260501204757 | 64 | 293 | 6.1 | 8.7 | 0.00 | 0.00 | 0.00 | 10 | 1021.1 |
| 20260501204254 | 65 | 307 | 6.1 | 8.7 | 0.00 | 0.00 | 0.00 | 10 | 1021.1 |
| 20260501203750 | 64 | 303 | 9.6 | 13.0 | 0.00 | 0.00 | 0.00 | 10 | 1021.0 |
| 20260501203248 | 64 | 335 | 10.4 | 12.2 | 0.00 | 0.00 | 0.00 | 10 | 1021.0 |
| 20260501202745 | 64 | 274 | 6.1 | 6.1 | 0.00 | 0.00 | 0.00 | 10 | 1021.1 |
| 20260501202241 | 64 | 312 | 9.6 | 11.3 | 0.00 | 0.00 | 0.00 | 10 | 1021.0 |
| 20260501201738 | 64 | 307 | 6.1 | 7.8 | 0.00 | 0.00 | 0.00 | 10 | 1021.1 |
| 20260501201235 | 64 | 326 | 8.7 | 9.6 | 0.00 | 0.00 | 0.00 | 10 | 1021.0 |
| 20260501200732 | 64 | 289 | 2.6 | 2.6 | 0.00 | 0.00 | 0.00 | 10 | 1021.4 |
| 20260501200229 | 64 | 293 | 5.2 | 6.1 | 0.00 | 0.00 | 0.00 | 10 | 1021.1 |
| 20260501195726 | 64 | 147 | 0.0 | 0.9 | 0.00 | 0.00 | 0.00 | 10 | 1021.0 |
| 20260501195222 | 64 | 262 | 4.3 | 5.2 | 0.00 | 0.00 | 0.00 | 10 | 1021.2 |
| 20260501194719 | 65 | 272 | 4.3 | 6.1 | 0.00 | 0.00 | 0.00 | 10 | 1021.5 |
| 20260501194214 | 64 | 220 | 2.6 | 4.3 | 0.00 | 0.00 | 0.00 | 10 | 1021.5 |
| 20260501193711 | 63 | 186 | 2.6 | 2.6 | 0.00 | 0.00 | 0.00 | 10 | 1021.4 |
| 20260501193210 | 64 | 15 | 5.2 | 7.8 | 0.00 | 0.00 | 0.00 | 10 | 1021.5 |
| 20260501192707 | 64 | 331 | 7.8 | 8.7 | 0.00 | 0.00 | 0.00 | 10 | 1021.4 |
| 20260501192204 | 64 | 270 | 3.5 | 5.2 | 0.00 | 0.00 | 0.00 | 10 | 1021.4 |
| 20260501191701 | 63 | 187 | 1.7 | 1.7 | 0.00 | 0.00 | 0.00 | 10 | 1021.5 |
| 20260501191158 | 62 | 311 | 2.6 | 4.3 | 0.00 | 0.00 | 0.00 | 10 | 1021.7 |
| 20260501190654 | 63 | 311 | 7.0 | 8.7 | 0.00 | 0.00 | 0.00 | 10 | 1021.6 |
| 20260501190150 | 63 | 335 | 4.3 | 5.2 | 0.00 | 0.00 | 0.00 | 10 | 1021.7 |